Selinsgrove, PA

8:26 PM EDT on October 21, 2017 (GMT -0400)
Penn Valley

Weather History for KSEG - December, 2012

Change the Weather History Date:

Monday, December 3, 2012

  Actual Average (KIPT) Record (KIPT)
Temperature  
Mean Temperature 50 °F -  
Max Temperature 62 °F 42 °F 66 °F (1998)
Min Temperature 37 °F 27 °F 5 °F (1976)
Degree Days  
Heating Degree Days 16    
Moisture  
Dew Point 45 °F    
Average Humidity 90    
Maximum Humidity 100    
Minimum Humidity 70    
Precipitation  
Precipitation 0.00 in - - ()
Sea Level Pressure  
Sea Level Pressure 30.19 in    
Wind  
Wind Speed 1 mph (NE)    
Max Wind Speed 6 mph    
Max Gust Speed -    
Visibility 3 miles    
Events Fog , Rain    
Averages and records for this station are not official NWS values.
T = Trace of Precipitation, MM = Missing Value Source: NWS Daily Summary

Daily Weather History Graph

Daily Weather History Graph

Search for Another Location

Airport or City:

Trip Planner

Search our weather history database for the weather conditions in past years. The results will help you decide how hot, cold, wet, or windy it might be!

Date:

Astronomy

Dec. 03, 2012 Rise Set
Actual Time 7:14 AM EST 4:39 PM EST
Civil Twilight 6:44 AM EST 5:10 PM EST
Nautical Twilight 6:10 AM EST 5:44 PM EST
Astronomical Twilight 5:37 AM EST 6:17 PM EST
Moon 9:25 PM EST (12/3) 10:36 AM EST (12/3)
Length of Visible Light 10h 26m
Length of Day
9h 25m
Waning Gibbous, 78% of the Moon is Illuminated
Dec 3
Waning Gibbous
Dec 6
Last Quarter
Dec 13
New
Dec 20
First Quarter
Dec 28
Full

Hourly Weather History & Observations

Time (EST) Temp. Windchill Dew Point Humidity Pressure Visibility Wind Dir Wind Speed Gust Speed Precip Events Conditions
12:01 AM 46.4 °F - 44.6 °F 93% 30.13 in 3.0 mi Calm Calm - N/A   Overcast
12:53 AM 46.0 °F - 43.0 °F 89% 30.14 in 3.0 mi Calm Calm - N/A   Mostly Cloudy
1:15 AM 44.6 °F - 42.8 °F 93% 30.14 in 2.5 mi Calm Calm - N/A   Mostly Cloudy
1:46 AM 46.4 °F - 42.8 °F 87% 30.15 in 3.0 mi Calm Calm - N/A   Overcast
1:53 AM 46.9 °F - 43.0 °F 86% 30.16 in 3.0 mi Calm Calm - N/A   Overcast
2:15 AM 46.4 °F - 44.6 °F 93% 30.15 in 2.5 mi Calm Calm - N/A   Overcast
2:22 AM 46.4 °F - 44.6 °F 93% 30.15 in 3.0 mi Calm Calm - N/A   Overcast
2:53 AM 46.9 °F - 44.1 °F 90% 30.17 in 3.0 mi Calm Calm - N/A   Overcast
3:06 AM 46.4 °F 45.2 °F 44.6 °F 93% 30.16 in 3.0 mi South 3.5 mph - N/A   Overcast
3:14 AM 46.4 °F - 44.6 °F 93% 30.16 in 2.5 mi Calm Calm - N/A   Overcast
3:53 AM 45.0 °F - 43.0 °F 93% 30.17 in 2.0 mi Calm Calm - N/A   Overcast
4:51 AM 42.8 °F 41.1 °F 42.8 °F 100% 30.17 in 1.5 mi South 3.5 mph - N/A   Mostly Cloudy
4:53 AM 43.0 °F 41.3 °F 42.1 °F 97% 30.17 in 1.5 mi South 3.5 mph - N/A   Mostly Cloudy
5:16 AM 41.0 °F - 39.2 °F 93% 30.17 in 0.8 mi Calm Calm - N/A   Clear
5:28 AM 41.0 °F - 39.2 °F 93% 30.17 in 0.2 mi Calm Calm - N/A Fog Fog
5:53 AM 39.0 °F - 39.0 °F 100% 30.19 in 0.2 mi Calm Calm - N/A Fog Fog
6:03 AM 37.4 °F - 37.4 °F 100% 30.19 in 0.2 mi Calm Calm - N/A Fog Fog
6:10 AM 39.2 °F - 39.2 °F 100% 30.19 in 0.2 mi Calm Calm - N/A Fog Fog
6:53 AM 37.0 °F - 37.0 °F 100% 30.22 in 0.2 mi Calm Calm - N/A Fog Fog
7:53 AM 37.0 °F - 37.0 °F 100% 30.24 in 0.2 mi Calm Calm - N/A Fog Fog
8:53 AM 41.0 °F - 41.0 °F 100% 30.25 in 0.2 mi Calm Calm - N/A Fog Fog
10:53 AM 46.9 °F - 46.0 °F 97% 30.25 in 1.0 mi Calm Calm - N/A   Overcast
11:05 AM 46.4 °F - 46.4 °F 100% 30.24 in 1.2 mi Calm Calm - N/A   Overcast
11:29 AM 53.6 °F - 48.2 °F 82% 30.22 in 2.0 mi Calm Calm - N/A   Mostly Cloudy
11:36 AM 53.6 °F - 48.2 °F 82% 30.22 in 3.0 mi Calm Calm - N/A   Haze
11:53 AM 54.0 °F - 48.9 °F 83% 30.22 in 3.0 mi Calm Calm - N/A   Haze
12:07 PM 57.2 °F - 50.0 °F 77% 30.22 in 4.0 mi Calm Calm - N/A   Haze
12:38 PM 59.0 °F - 51.8 °F 77% 30.20 in 5.0 mi East 3.5 mph - N/A   Haze
12:53 PM 59.0 °F - 51.1 °F 75% 30.20 in 5.0 mi Calm Calm - N/A   Haze
1:53 PM 62.1 °F - 52.0 °F 70% 30.19 in 6.0 mi Calm Calm - N/A   Haze
2:53 PM 62.1 °F - 52.0 °F 70% 30.18 in 10.0 mi SSE 4.6 mph - N/A   Partly Cloudy
3:53 PM 61.0 °F - 51.1 °F 70% 30.19 in 10.0 mi Calm Calm - N/A   Overcast
4:53 PM 55.9 °F - 52.0 °F 87% 30.20 in 6.0 mi NNW 5.8 mph - N/A   Overcast
5:53 PM 55.0 °F - 50.0 °F 83% 30.22 in 5.0 mi North 4.6 mph - N/A   Haze
6:53 PM 52.0 °F - 50.0 °F 93% 30.23 in 4.0 mi Calm Calm - N/A   Mostly Cloudy
7:53 PM 51.1 °F - 48.9 °F 92% 30.22 in 4.0 mi North 3.5 mph - N/A   Overcast
8:53 PM 51.1 °F - 48.9 °F 92% 30.22 in 4.0 mi NNW 3.5 mph - N/A   Overcast
9:53 PM 50.0 °F - 48.9 °F 96% 30.22 in 4.0 mi Calm Calm - N/A   Overcast
10:53 PM 51.1 °F - 48.9 °F 92% 30.22 in 4.0 mi North 3.5 mph - N/A   Overcast
11:53 PM 51.1 °F - 48.9 °F 92% 30.22 in 3.0 mi Calm Calm - 0.00 in Rain Light Rain